Change the Weather History Date:

Thursday, September 12, 2013

  Actual Average (KMTC) Record (KMTC)
Temperature  
Mean Temperature 65 °F -  
Max Temperature 75 °F 73 °F 89 °F (1952)
Min Temperature 55 °F 54 °F 40 °F (1964)
Growing Degree Days 15 (Base 50)    
Moisture  
Dew Point 62 °F    
Average Humidity 89    
Maximum Humidity 100    
Minimum Humidity 53    
Precipitation  
Precipitation 0.00 in - - ()
Sea Level Pressure  
Sea Level Pressure 29.90 in    
Wind  
Wind Speed 3 mph (NNW)    
Max Wind Speed 13 mph    
Max Gust Speed 18 mph    
Visibility 9 miles    
Events Rain    
Averages and records for this station are not official NWS values.
T = Trace of Precipitation, MM = Missing Value Source: NWS Daily Summary

Daily Weather History Graph

Daily Weather History Graph

Search for Another Location

Airport or City:

Trip Planner

Search our weather history database for the weather conditions in past years. The results will help you decide how hot, cold, wet, or windy it might be!

Date:

Astronomy

Sep. 12, 2013 Rise Set
Actual Time 7:06 AM EDT 7:44 PM EDT
Civil Twilight 6:38 AM EDT 8:13 PM EDT
Nautical Twilight 6:04 AM EDT 8:47 PM EDT
Astronomical Twilight 5:29 AM EDT 9:22 PM EDT
Moon 2:42 PM EDT (9/12) No Moon Set
Length of Visible Light 13h 35m
Length of Day
12h 38m
Waxing Crescent, 50% of the Moon is Illuminated
Sep 12
Waxing Crescent
Sep 12
First Quarter
Sep 19
Full
Sep 26
Last Quarter
Oct 4
New

Hourly Weather History & Observations

Time (EDT) Temp. Dew Point Humidity Pressure Visibility Wind Dir Wind Speed Gust Speed Precip Events Conditions
12:16 AM 68.0 °F 68.0 °F 100% 29.94 in 5.0 mi Calm Calm - N/A Rain Light Rain
12:36 AM 68.0 °F 68.0 °F 100% 29.94 in 10.0 mi Calm Calm - N/A   Mostly Cloudy
12:56 AM 68.0 °F 68.0 °F 100% 29.93 in 10.0 mi Calm Calm - N/A   Mostly Cloudy
1:16 AM 68.0 °F 68.0 °F 100% 29.92 in 10.0 mi Calm Calm - N/A   Overcast
1:36 AM 68.0 °F 68.0 °F 100% 29.92 in 10.0 mi Calm Calm - N/A   Overcast
1:56 AM 68.0 °F 68.0 °F 100% 29.91 in 10.0 mi Calm Calm - N/A   Mostly Cloudy
2:16 AM 68.0 °F 68.0 °F 100% 29.92 in 10.0 mi Calm Calm - N/A   Overcast
2:36 AM 68.0 °F 68.0 °F 100% 29.91 in 10.0 mi Calm Calm - N/A   Mostly Cloudy
2:56 AM 68.0 °F 68.0 °F 100% 29.91 in 10.0 mi Calm Calm - N/A   Mostly Cloudy
3:16 AM 68.0 °F 68.0 °F 100% 29.91 in 10.0 mi Calm Calm - N/A   Overcast
3:36 AM 68.0 °F 68.0 °F 100% 29.90 in 10.0 mi Calm Calm - N/A   Overcast
3:56 AM 68.0 °F 68.0 °F 100% 29.90 in 10.0 mi Calm Calm - N/A   Overcast
4:16 AM 66.2 °F 66.2 °F 100% 29.90 in 10.0 mi SSW 3.5 mph - N/A   Mostly Cloudy
4:36 AM 66.2 °F 66.2 °F 100% 29.90 in 10.0 mi Calm Calm - N/A   Overcast
4:56 AM 66.2 °F 66.2 °F 100% 29.89 in 10.0 mi Calm Calm - N/A   Overcast
5:16 AM 66.2 °F 66.2 °F 100% 29.89 in 7.0 mi Calm Calm - N/A   Scattered Clouds
5:36 AM 66.2 °F 66.2 °F 100% 29.90 in 4.0 mi Calm Calm - N/A   Clear
5:56 AM 64.4 °F 64.4 °F 100% 29.90 in 5.0 mi Calm Calm - N/A   Clear
6:16 AM 64.4 °F 64.4 °F 100% 29.90 in 1.8 mi Calm Calm - N/A   Mist
6:36 AM 64.4 °F 64.4 °F 100% 29.90 in 5.0 mi SSW 3.5 mph - N/A   Clear
6:56 AM 64.4 °F 64.4 °F 100% 29.90 in 2.5 mi SSW 3.5 mph - N/A   Clear
7:16 AM 64.4 °F 64.4 °F 100% 29.90 in 2.0 mi Calm Calm - N/A   Clear
7:36 AM 64.4 °F 64.4 °F 100% 29.89 in 2.5 mi SSW 3.5 mph - N/A   Clear
7:56 AM 64.4 °F 64.4 °F 100% 29.89 in 4.0 mi SW 3.5 mph - N/A   Clear
8:16 AM 66.2 °F 66.2 °F 100% 29.90 in 4.0 mi West 3.5 mph - N/A   Clear
8:36 AM 66.2 °F 66.2 °F 100% 29.90 in 7.0 mi West 3.5 mph - N/A   Mostly Cloudy
8:56 AM 66.2 °F 66.2 °F 100% 29.89 in 7.0 mi Calm Calm - N/A   Overcast
9:16 AM 66.2 °F 66.2 °F 100% 29.90 in 7.0 mi WNW 5.8 mph - N/A   Overcast
9:36 AM 66.2 °F 66.2 °F 100% 29.90 in 5.0 mi WNW 8.1 mph - N/A   Overcast
9:56 AM 66.2 °F 66.2 °F 100% 29.90 in 5.0 mi WNW 4.6 mph - N/A   Overcast
10:16 AM 66.2 °F 66.2 °F 100% 29.90 in 7.0 mi NW 5.8 mph - N/A   Mostly Cloudy
10:36 AM 68.0 °F 66.2 °F 94% 29.90 in 10.0 mi NNW 10.4 mph - N/A   Overcast
10:56 AM 68.0 °F 64.4 °F 88% 29.90 in 10.0 mi NW 5.8 mph - N/A   Scattered Clouds
11:16 AM 69.8 °F 64.4 °F 83% 29.90 in 10.0 mi NNW 9.2 mph - N/A   Mostly Cloudy
11:36 AM 71.6 °F 62.6 °F 73% 29.90 in 10.0 mi NW 8.1 mph - N/A   Mostly Cloudy
11:56 AM 71.6 °F 62.6 °F 73% 29.90 in 10.0 mi NW 6.9 mph - N/A   Scattered Clouds
12:16 PM 73.4 °F 60.8 °F 65% 29.90 in 10.0 mi NNW 9.2 mph - N/A   Scattered Clouds
12:36 PM 73.4 °F 59.0 °F 61% 29.90 in 10.0 mi North 8.1 mph - N/A   Clear
12:56 PM 73.4 °F 57.2 °F 57% 29.90 in 10.0 mi NNW 9.2 mph 17.3 mph N/A   Clear
1:16 PM 75.2 °F 57.2 °F 53% 29.90 in 10.0 mi North 9.2 mph - N/A   Clear
1:36 PM 75.2 °F 57.2 °F 53% 29.89 in 10.0 mi North 9.2 mph - N/A   Scattered Clouds
1:56 PM 75.2 °F 57.2 °F 53% 29.89 in 10.0 mi NW 8.1 mph - N/A   Scattered Clouds
2:16 PM 75.2 °F 57.2 °F 53% 29.88 in 10.0 mi NW 8.1 mph 18.4 mph N/A   Scattered Clouds
2:36 PM 75.2 °F 62.6 °F 65% 29.89 in 10.0 mi NNE 12.7 mph - N/A   Mostly Cloudy
2:56 PM 71.6 °F 62.6 °F 73% 29.88 in 10.0 mi NNE 11.5 mph - N/A   Overcast
3:16 PM 71.6 °F 62.6 °F 73% 29.88 in 10.0 mi North 9.2 mph - N/A   Scattered Clouds
3:36 PM 71.6 °F 62.6 °F 73% 29.88 in 10.0 mi NE 12.7 mph 17.3 mph N/A   Scattered Clouds
3:56 PM 71.6 °F 60.8 °F 69% 29.87 in 10.0 mi NNE 8.1 mph - N/A   Scattered Clouds
4:16 PM 71.6 °F 62.6 °F 73% 29.87 in 10.0 mi NNE 9.2 mph - N/A   Scattered Clouds
4:36 PM 71.6 °F 62.6 °F 73% 29.86 in 10.0 mi NE 11.5 mph - N/A   Mostly Cloudy
4:56 PM 68.0 °F 62.6 °F 83% 29.86 in 10.0 mi NE 6.9 mph - N/A   Mostly Cloudy
5:16 PM 68.0 °F 60.8 °F 78% 29.86 in 10.0 mi NE 9.2 mph - N/A   Mostly Cloudy
5:36 PM 64.4 °F 62.6 °F 94% 29.86 in 7.0 mi NNE 3.5 mph - N/A Rain Light Rain
5:56 PM 64.4 °F 62.6 °F 94% 29.86 in 10.0 mi NE 6.9 mph - N/A   Scattered Clouds
6:16 PM 66.2 °F 64.4 °F 94% 29.86 in 10.0 mi NNE 8.1 mph - N/A   Scattered Clouds
6:36 PM 64.4 °F 62.6 °F 94% 29.86 in 10.0 mi NNE 10.4 mph - N/A   Mostly Cloudy
6:56 PM 64.4 °F 60.8 °F 88% 29.87 in 10.0 mi NNE 11.5 mph - N/A   Overcast
7:16 PM 62.6 °F 60.8 °F 94% 29.89 in 5.0 mi NNE 9.2 mph 16.1 mph N/A Rain Rain
7:36 PM 60.8 °F 59.0 °F 94% 29.89 in 10.0 mi North 11.5 mph 16.1 mph N/A Rain Light Rain
7:56 PM 60.8 °F 59.0 °F 94% 29.90 in 10.0 mi NNW 8.1 mph - N/A Rain Light Rain
8:16 PM 60.8 °F 59.0 °F 94% 29.92 in 5.0 mi WNW 6.9 mph - N/A Rain Heavy Rain
8:36 PM 59.0 °F 59.0 °F 100% 29.91 in 10.0 mi Calm Calm - N/A Rain Light Rain
8:56 PM 59.0 °F 59.0 °F 100% 29.92 in 10.0 mi Calm Calm - N/A   Overcast
9:16 PM 59.0 °F 59.0 °F 100% 29.93 in 10.0 mi NW 9.2 mph - N/A   Overcast
9:36 PM 59.0 °F 55.4 °F 88% 29.93 in 10.0 mi NW 6.9 mph - N/A   Overcast
9:56 PM 57.2 °F 55.4 °F 94% 29.93 in 10.0 mi NNW 5.8 mph - N/A   Overcast
10:16 PM 57.2 °F 53.6 °F 88% 29.93 in 10.0 mi NNW 5.8 mph - N/A   Overcast
10:36 PM 57.2 °F 53.6 °F 88% 29.93 in 10.0 mi NNW 9.2 mph - N/A   Overcast
10:56 PM 57.2 °F 51.8 °F 82% 29.93 in 10.0 mi NNW 5.8 mph - N/A   Overcast
11:16 PM 55.4 °F 51.8 °F 88% 29.93 in 10.0 mi NW 8.1 mph - N/A   Overcast
11:36 PM 55.4 °F 50.0 °F 82% 29.93 in 10.0 mi NW 8.1 mph - N/A   Overcast
11:56 PM 55.4 °F 50.0 °F 82% 29.94 in 10.0 mi NW 5.8 mph - N/A   Overcast